EHI
0 0 0 0 0 0 0 0 0 0 0 0 1 3 4 3 5 8 10 11 10 9 8 9 13 15 15 15 16 16 14 12 11 9 5 2 1 2 1 0 1 2 4 6
0 0 0 0 0 0 0 0 0 0 0 0 1 2 3 4 7 10 11 12 11 10 10 12 15 18 17 16 17 18 17 14 13 9 4 1 1 1 1 0 1 2 4 6
0 0 0 0 0 0 0 0 0 0 0 0 1 1 1 4 9 12 13 13 13 12 12 14 19 23 22 19 17 18 18 16 13 9 5 2 2 2 1 1 1 2 4 5
0 0 0 0 0 0 0 0 0 0 0 0 0 0 1 4 8 11 13 14 15 15 14 16 22 27 28 24 20 18 18 16 13 10 7 6 5 3 1 0 1 2 3 4
0 0 0 0 0 0 0 0 0 0 0 0 0 0 1 4 6 8 11 14 16 17 17 19 23 27 29 28 24 21 20 18 14 11 9 8 6 3 1 0 0 2 3 3
0 0 0 0 0 0 0 0 0 0 0 0 0 0 1 3 4 6 9 14 17 19 20 22 24 25 26 27 28 26 23 21 18 15 12 10 7 5 2 1 1 2 3 4
0 0 0 0 0 0 0 0 0 0 0 0 0 0 1 3 4 6 10 14 18 20 20 23 25 25 25 28 31 31 28 25 22 20 17 13 10 8 5 3 3 4 5 6
0 0 0 0 0 0 0 0 0 0 0 0 0 0 1 3 5 6 9 14 18 20 21 23 26 25 26 30 34 36 34 30 27 25 21 15 11 9 6 5 6 7 7 8
0 0 0 0 0 0 0 0 0 0 0 0 0 0 1 3 4 5 6 11 15 18 20 21 22 23 25 28 32 36 38 35 32 30 25 19 14 12 9 9 9 9 10 11
0 0 0 0 0 0 0 0 0 0 0 0 0 0 0 1 3 4 5 8 13 16 17 17 17 18 22 25 28 32 36 37 36 35 31 25 21 16 14 13 12 11 11 12
0 0 0 0 0 0 0 0 0 0 0 0 0 0 0 1 3 4 5 9 14 16 15 15 16 17 20 22 24 28 33 36 38 37 35 32 26 20 18 16 13 11 11 10
0 0 0 0 0 0 0 0 0 0 0 0 0 0 1 2 4 5 7 11 15 17 16 16 18 20 21 23 24 26 31 34 36 37 37 35 30 25 22 18 13 11 11 10
0 0 0 0 0 0 0 0 0 0 0 0 0 1 3 5 6 6 9 12 15 16 15 16 20 23 24 24 26 27 29 32 35 37 38 36 33 28 25 21 16 13 12 11
0 0 0 0 0 0 0 0 0 0 0 0 1 2 4 6 7 8 11 13 14 13 12 14 18 21 23 24 25 27 29 32 36 39 38 37 34 30 26 22 19 17 15 14
0 0 0 0 0 0 0 0 0 0 0 0 2 4 4 5 7 10 12 13 13 10 9 11 15 19 21 22 24 26 30 34 37 39 40 39 37 34 29 24 22 21 18 16
0 0 0 0 0 0 0 0 0 0 0 1 3 5 4 4 7 11 13 14 13 10 8 9 13 17 21 22 23 24 29 35 37 38 40 41 41 38 34 28 25 23 20 17
0 0 0 1 0 0 0 0 0 0 0 2 3 5 4 4 6 9 13 15 13 11 9 10 13 18 22 23 23 23 25 31 34 35 37 40 41 40 37 33 28 25 22 20
0 0 0 0 0 0 0 0 0 0 0 1 3 4 6 6 6 8 12 15 13 11 11 13 15 18 21 24 25 23 23 25 28 30 31 35 39 39 37 34 30 26 24 23
0 0 0 0 0 0 0 0 0 0 0 1 3 6 9 10 9 9 11 13 13 12 13 16 19 19 20 22 25 25 23 22 22 23 25 29 34 36 36 35 33 31 29 29
0 0 0 0 0 0 0 0 0 0 0 1 4 8 11 13 11 10 11 13 14 15 17 20 21 21 21 21 22 25 25 22 20 18 19 23 29 33 35 37 38 38 37 35
0 0 0 0 0 1 1 0 0 0 0 2 5 9 11 13 13 12 14 16 18 19 20 22 22 22 21 20 21 23 25 24 22 18 17 20 25 30 34 36 38 39 39 38
0 0 0 0 0 1 2 1 1 1 2 4 7 9 12 15 16 17 19 19 20 21 22 22 22 21 19 18 19 21 23 25 24 22 21 22 24 27 30 32 34 36 35 34
0 0 0 0 0 1 2 2 3 3 4 6 9 11 14 16 18 19 20 20 21 21 21 19 19 19 18 17 17 18 20 23 24 24 23 23 23 24 26 28 29 29 29 29
0 0 1 1 1 0 1 2 5 7 7 8 11 13 14 16 17 17 17 19 19 19 17 16 17 17 18 17 16 16 16 18 20 20 21 21 21 20 20 22 23 23 24 25
0 1 2 2 1 0 0 2 6 8 8 10 13 15 16 16 15 14 14 15 15 15 15 15 15 15 16 16 15 14 14 14 14 15 16 17 17 15 14 16 18 18 18 20
0 1 2 1 0 0 0 2 6 9 9 11 14 17 18 16 15 14 14 13 12 14 15 15 13 12 13 15 16 14 12 11 11 11 12 12 12 11 10 12 14 14 14 15
Wind_Speed
1 3 3 7 7 6 3 4 7 7 3 2 4 6 10 10 9 9 8 9 9 9 8 9 10 10 9 7 7 7 6 6 4 3 3 2 2 2 2 2 3 3 3 3
3 4 11 8 6 4 4 5 6 6 3 3 5 5 6 8 10 11 11 11 10 9 8 9 9 9 9 8 8 8 7 6 5 4 3 3 2 2 2 2 2 3 3 2
7 10 8 5 6 5 5 6 7 5 2 2 5 1 3 4 5 6 7 9 10 12 12 11 10 9 9 8 8 8 7 6 5 4 2 1 1 1 0 1 1 2 2 2
6 8 6 6 7 6 6 8 6 4 1 2 2 2 5 4 4 5 7 8 10 10 10 10 11 11 11 10 9 7 7 6 5 5 4 4 3 3 3 2 2 2 2 2
7 5 4 5 6 5 7 6 3 2 1 1 2 3 6 1 4 7 9 10 10 10 12 12 13 13 12 11 9 8 7 6 6 5 5 5 3 3 2 1 2 1 1 2
8 6 5 6 5 4 4 3 5 5 5 2 2 2 5 4 8 7 8 9 9 10 12 12 12 10 9 9 9 9 8 8 7 6 6 6 5 4 3 2 2 1 1 1
6 7 5 3 3 4 3 6 4 6 5 4 2 2 7 7 7 9 9 9 9 9 11 12 11 10 10 10 10 9 10 9 7 7 7 6 6 5 5 4 3 3 2 2
3 8 5 3 5 6 3 8 7 4 4 4 2 3 7 5 3 4 5 6 7 7 9 11 11 11 10 10 10 10 10 9 8 8 7 6 6 5 4 4 4 4 3 3
6 8 7 4 3 5 2 2 7 7 3 1 3 4 5 2 2 2 4 4 5 6 7 9 10 9 10 10 10 11 10 9 9 8 6 5 6 5 5 4 4 3 3 3
7 5 6 5 3 2 5 4 5 5 4 2 3 2 3 2 2 2 4 5 4 4 4 5 5 7 8 8 8 9 10 10 9 8 7 6 6 6 5 4 4 3 3 3
5 4 6 3 0 2 1 3 4 3 5 6 3 6 5 7 6 6 5 4 5 5 5 4 3 4 6 6 7 8 9 9 8 8 7 6 6 5 5 4 4 4 3 3
3 6 3 6 5 4 5 5 6 4 2 3 4 6 3 4 4 6 6 5 5 5 5 4 3 2 4 5 6 7 8 9 9 8 7 6 6 5 5 5 5 4 4 3
3 5 1 7 7 4 2 2 4 5 4 3 4 6 3 1 2 3 6 5 5 4 4 3 3 2 3 4 5 5 6 8 8 7 7 6 6 6 6 5 5 5 4 4
5 5 7 8 8 4 1 1 2 5 3 3 5 5 3 2 3 4 5 5 6 5 4 3 3 2 2 3 4 4 4 5 6 7 7 7 7 7 7 6 5 5 5 5
5 3 2 4 3 2 2 2 1 3 6 7 7 7 7 8 7 7 6 5 5 4 3 3 3 3 2 2 2 3 4 4 5 6 7 7 7 6 5 5 5 4 4 5
4 3 1 1 1 1 1 1 1 1 2 4 5 4 4 4 4 4 5 6 5 4 4 4 4 4 3 3 3 3 3 4 4 6 6 5 5 5 5 5 4 4 4 4
1 3 2 2 2 3 3 3 2 1 2 6 6 6 4 4 6 8 7 6 6 6 5 5 5 4 4 3 3 3 3 3 4 5 5 5 5 5 5 5 4 4 4 4
5 3 3 2 1 3 8 3 3 2 0 3 5 5 8 8 6 6 7 7 5 5 4 4 5 4 3 2 2 2 3 3 3 4 4 5 5 5 4 4 4 4 4 4
6 7 4 3 3 5 5 2 2 3 2 2 6 6 6 5 4 1 3 6 6 5 5 5 5 5 4 3 3 3 2 2 3 3 4 4 5 5 5 5 5 4 4 4
4 5 5 4 3 5 6 5 3 5 1 2 5 8 7 7 4 4 4 4 5 4 4 4 4 4 4 3 3 4 3 2 2 3 3 4 4 5 6 6 5 4 4 4
3 3 3 4 3 5 6 4 4 4 6 4 5 7 7 5 6 5 4 4 5 5 4 5 5 4 4 4 4 3 2 3 3 2 1 2 3 4 5 4 3 3 3 3
3 3 2 3 3 6 4 2 4 6 3 3 4 5 4 4 4 4 5 5 5 4 4 4 4 3 3 4 4 3 2 3 2 2 1 2 3 3 3 3 3 3 4 4
2 5 5 6 6 6 2 2 3 3 2 2 4 5 6 6 5 5 4 4 4 4 3 4 4 3 2 2 4 4 3 2 1 1 1 2 2 2 2 3 3 3 3 3
3 2 3 1 2 2 1 1 2 1 2 3 5 6 7 6 5 5 4 4 3 3 3 4 4 4 2 1 2 3 2 2 2 1 2 2 2 1 1 1 2 3 3 3
3 2 2 0 3 3 4 3 1 1 2 2 3 4 6 7 5 4 4 3 3 3 3 4 5 4 3 2 2 2 2 3 2 2 2 1 1 1 0 0 1 2 3 5
2 3 3 4 4 2 4 4 2 1 1 3 4 3 3 5 5 5 4 3 3 3 3 3 3 3 3 2 2 2 2 3 3 2 1 1 1 1 1 1 1 2 1 2
Wind_Direction
264 88 237 235 209 208 219 261 270 266 248 138 167 168 177 177 164 172 178 175 174 177 171 171 172 168 163 164 163 166 166 171 160 156 158 161 187 196 201 205 198 192 192 184
11 248 234 234 232 242 240 262 273 287 255 155 169 181 191 180 180 179 181 183 180 177 170 172 172 168 167 169 174 173 173 171 172 171 170 171 174 191 190 192 189 188 183 182
214 241 243 242 248 240 254 237 249 248 315 33 110 16 227 217 184 172 177 183 182 180 178 174 172 171 170 176 180 179 176 172 175 168 150 136 88 52 58 187 200 206 180 173
247 256 259 254 246 208 247 232 231 243 76 291 129 193 264 212 191 187 190 191 191 185 178 176 175 175 179 186 180 175 173 172 174 165 161 165 171 188 209 203 195 199 188 179
253 257 276 270 246 196 227 236 235 251 150 34 15 116 280 221 200 210 204 200 196 187 180 180 182 182 182 182 179 178 171 175 179 172 172 172 180 195 195 179 174 189 203 194
250 259 232 236 257 210 192 45 15 34 63 28 274 145 273 232 209 202 206 205 199 190 186 183 184 179 181 182 180 177 174 182 182 177 176 178 181 181 173 184 185 201 219 226
297 289 264 238 295 304 102 87 30 6 15 262 264 138 250 235 207 191 197 203 194 191 186 182 181 181 182 181 183 184 182 187 187 182 184 185 186 180 186 192 189 187 198 215
237 279 269 248 198 207 205 138 156 185 217 270 310 221 254 251 205 179 180 172 175 180 183 181 183 185 185 183 183 182 184 189 189 189 191 189 184 185 190 187 181 187 199 208
196 250 276 272 226 162 160 169 166 139 151 162 274 278 308 24 65 102 122 131 151 166 172 177 179 179 182 183 185 183 182 186 187 187 184 188 189 186 185 187 186 190 199 201
176 233 279 287 17 25 145 150 89 108 145 224 287 272 246 217 179 119 123 128 134 148 153 165 170 177 183 183 182 180 181 186 186 184 187 190 194 191 185 182 187 189 191 193
153 177 284 331 150 237 47 71 99 116 152 156 206 259 228 198 181 157 150 154 148 155 150 135 152 179 176 179 178 179 184 184 184 187 189 189 189 186 179 183 196 191 184 184
172 141 234 256 247 196 156 155 137 141 231 160 168 256 277 185 171 152 143 150 157 158 143 137 140 154 166 172 177 182 188 188 189 186 183 187 188 181 183 187 197 195 191 193
146 119 111 325 333 349 72 122 134 130 120 144 162 255 314 108 129 156 144 149 152 145 136 131 135 150 161 165 172 179 183 188 186 178 182 187 189 187 190 190 192 192 189 191
125 118 162 201 224 223 242 284 140 113 137 203 208 217 267 198 170 181 166 158 150 150 148 145 152 164 176 177 167 172 181 182 180 178 183 190 195 197 191 189 191 193 189 188
95 133 186 199 201 162 187 222 183 157 182 184 208 198 210 203 188 181 164 149 138 144 149 162 160 159 169 165 161 167 177 179 178 177 186 198 198 190 185 187 191 194 194 195
70 123 96 310 235 91 353 263 213 207 191 173 158 219 230 186 155 155 156 157 158 169 174 172 166 156 161 174 172 168 179 184 175 177 188 191 181 178 183 189 188 189 199 202
89 109 93 263 293 35 288 237 176 238 225 158 178 214 177 159 168 175 175 171 175 180 174 165 156 160 167 177 175 169 181 177 168 175 182 182 178 180 186 185 183 194 203 200
153 126 138 176 71 219 241 234 151 143 230 164 155 163 167 173 179 175 167 166 178 174 171 165 156 156 156 151 139 157 152 159 167 179 183 186 179 189 192 186 194 202 199 199
157 146 138 136 181 251 283 276 204 170 251 178 140 150 157 140 95 126 186 168 172 174 170 164 161 157 148 145 142 120 126 147 164 185 200 195 188 190 193 200 205 201 192 200
84 117 129 138 159 219 244 262 228 120 246 259 143 145 145 123 129 225 204 152 146 148 147 144 140 136 142 155 141 127 134 141 174 205 216 209 194 195 200 205 204 199 190 192
37 52 135 162 190 246 258 288 75 125 230 243 169 154 152 167 188 195 163 143 138 139 143 139 139 144 160 158 138 138 152 187 208 209 219 219 206 201 202 198 192 181 178 175
168 150 182 147 163 245 286 53 143 205 219 181 164 159 149 141 130 136 139 136 131 134 141 144 139 148 159 150 141 148 204 219 190 172 192 229 232 221 202 184 185 176 171 177
175 181 178 175 203 240 267 174 195 167 145 176 160 154 140 135 141 143 144 137 141 152 160 153 145 144 160 160 155 170 222 215 146 131 230 238 235 230 195 184 188 187 185 185
312 40 86 68 281 287 331 31 29 98 146 171 163 156 144 147 154 150 149 155 155 161 157 149 144 150 184 199 174 192 209 183 151 172 250 250 225 228 226 201 195 194 196 196
269 6 48 25 280 339 343 351 8 17 60 120 148 151 149 146 154 150 146 156 166 169 165 156 158 167 185 188 197 203 188 166 173 202 224 240 216 194 224 283 248 219 220 209
235 168 162 218 233 203 259 282 345 35 67 136 131 118 131 145 151 143 147 160 159 159 149 147 155 163 177 175 189 209 187 165 169 201 229 234 232 217 202 199 333 348 299 242